Location: Boćki
(52.6512°N, 23.0459°E)
Time: 08:04:41
(UTC+02:00)

ISS - Pass Details

Date: 23 March 2019
Orbit: 408 x 410 km, 51.6° (Epoch: 26 April)

Event Time Altitude Azimuth Distance (km) Brightness Sun altitude
Rises 20:17:59 0° 245° (WSW) 2,332 0.4 -22.4°
Reaches altitude 10° 20:20:06 10° 240° (WSW) 1,472 -0.7 -22.7°
Enters shadow 20:21:07 18° 235° (SW) 1,073 -1.5 -22.8°
